207P/NEAT (2001)

Japanese version
Home page
Updated on October 21, 2008

---------------------------------------------------------------------

* Profile

Designation 207P/2001 J1
Discovery Date May 11, 2001
Magnitude 19.9 mag
Discoverer Near-Earth-Asteroid Tracking Team (Jet Propulsion Laboratory)

* Orbital Elements

                    Epoch = 2001 Apr.  1.0 TT
     T = 2001 Mar. 14.1052 TT         Peri. = 271.0222
     e = 0.758290                     Node  = 200.7993  2000.0
     q = 0.937075 AU                  Incl. =  10.1577
       a =  3.876861 AU    n = 0.1291171    P =   7.633 years

* Finding Charts

* Magnitudes Graph

        m1 = 16.0 + 5 log d + 10.0 log r

---------------------------------------------------------------------

The orbital elements are printed on IAUC 8996.
The charts are made with StellaNavigator Ver.2.0 for Windows (AstroArts / ASCII).
The magnitudes graphs are made with Comet for Windows.

---------------------------------------------------------------------

Copyright(C) Seiichi Yoshida (comet@aerith.net). All rights reserved.